Current Weather Conditions: station ENDR

sailwx.info

See reports from other nearby stations

no recent reports received from weather station ID ENDR

Tides Pressure Air temp Water temp Dewpoint Dewpoint depression Visibility Wind speed Wind direction Waves Ship positions
date/time (UTC)wind fromknots sea level pressurealtimeterstation pressurevisibilityair tempwater tempwave heightnotes
2017-Aug-20 08:50 350 15 13.0
2017-Aug-20 08:20 340 14 13.0
2017-Aug-20 07:50 340 13 13.0
2017-Aug-20 07:20 340 13 13.0
2017-Aug-20 06:50 340 13 13.0
2017-Aug-20 06:10 340 13 5.413.0 Light rain. Fog in the vicinity.
2017-Aug-20 05:50 340 13 13.0
2017-Aug-20 05:20 340 12 13.0
2017-Aug-20 04:50 350 13 13.0
2017-Aug-20 04:20 330 7 13.0
2017-Aug-20 03:50 320 9 13.0
2017-Aug-20 03:20 310 15 13.0
2017-Aug-20 02:50 320 6 13.0
2017-Aug-20 02:20 320 6 14.0
2017-Aug-20 01:50 340 6 14.0
2017-Aug-20 01:20 310 13 14.0
2017-Aug-20 00:50 320 8 14.0
2017-Aug-20 00:20 310 6 13.0
2017-Aug-19 23:50 330 5 14.0
2017-Aug-19 23:20 310 5 14.0
2017-Aug-19 22:50 300 11 14.0
2017-Aug-19 22:20 280 11 14.0
2017-Aug-19 21:50 280 8 14.0
2017-Aug-19 21:20 290 8 15.0
2017-Aug-19 20:50 290 8 15.0
2017-Aug-19 20:20 310 2 14.0
2017-Aug-19 19:50 330 1 14.0
2017-Aug-19 19:20 290 6 15.0
2017-Aug-19 18:50 350 1 14.0
2017-Aug-19 18:20 030 1 14.0
2017-Aug-19 17:50 130 2 14.0
2017-Aug-19 17:20 130 4 14.0
2017-Aug-19 16:50 120 5 14.0
2017-Aug-19 16:20 120 6 14.0
2017-Aug-19 15:50 130 6 14.0
2017-Aug-19 15:10 120 7 5.414.0
2017-Aug-19 14:50 120 7 14.0
2017-Aug-19 14:20 110 9 15.0
2017-Aug-19 13:50 120 8 15.0
2017-Aug-19 13:20 110 8 15.0
2017-Aug-19 12:50 090 11 15.0
2017-Aug-19 12:10 090 11 5.416.0
2017-Aug-19 11:50 080 13 17.0
2017-Aug-19 11:20 070 11 17.0
2017-Aug-19 10:50 080 12 16.0
2017-Aug-19 10:20 080 12 17.0
2017-Aug-19 09:50 060 12 17.0
2017-Aug-19 09:10 060 9 5.418.0
2017-Aug-19 08:50 060 11 18.0
2017-Aug-19 08:20 060 8 18.0
2017-Aug-19 07:50 060 8 18.0
2017-Aug-19 07:20 070 7 19.0
2017-Aug-19 06:50 070 7 18.0
2017-Aug-19 06:10 080 8 5.416.0
2017-Aug-19 05:50 080 6 16.0
2017-Aug-19 05:20 070 7 17.0
2017-Aug-19 04:50 060 7 16.0
2017-Aug-19 04:20 060 9 16.0
2017-Aug-19 03:50 060 11 16.0
2017-Aug-19 03:20 050 12 15.0
2017-Aug-19 02:50 060 9 16.0
2017-Aug-19 02:20 050 13 15.0
2017-Aug-19 01:50 050 9 15.0
2017-Aug-19 01:20 050 11 15.0
2017-Aug-19 00:50 050 13 15.0
2017-Aug-19 00:20 040 14 14.0
2017-Aug-18 23:50 030 15 14.0
2017-Aug-18 23:20 14.0
2017-Aug-18 22:50 030 19 14.0
2017-Aug-18 22:20 030 18 14.0
2017-Aug-18 21:50 030 17 14.0
2017-Aug-18 21:20 030 17 14.0
2017-Aug-18 20:50 020 17 14.0
2017-Aug-18 20:20 020 17 15.0
2017-Aug-18 19:50 030 14 14.0
2017-Aug-18 19:20 030 13 15.0
2017-Aug-18 18:50 030 12 15.0
2017-Aug-18 18:20 030 13 15.0
2017-Aug-18 17:50 040 13 16.0
2017-Aug-18 17:20 030 13 16.0
2017-Aug-18 16:50 030 13 16.0
2017-Aug-18 16:20 040 12 16.0
2017-Aug-18 15:50 040 11 17.0
2017-Aug-18 15:10 040 8 5.417.0
2017-Aug-18 14:50 040 8 17.0
2017-Aug-18 14:20 050 7 17.0
2017-Aug-18 13:50 050 6 16.0
2017-Aug-18 13:20 060 6 16.0
2017-Aug-18 12:50 330 2 17.0
2017-Aug-18 12:10 050 4 5.416.0
2017-Aug-18 11:50 300 7 16.0
2017-Aug-18 11:20 250 8 14.0
2017-Aug-18 10:50 260 9 14.0
2017-Aug-18 10:20 230 4 14.0